{"data":{"norad_id":61899,"intl_designator":"2024-205F","name":"2024-205F","alt_names":[],"object_type":"PAYLOAD","status":"ACTIVE","operator":null,"country":"PRC","launch_date":"2024-11-11","launch_site_code":"JSC","launch_vehicle":null,"mission":null,"orbit_class":"UNKNOWN","rcs_meters":null,"size_class":null,"mass_kg":null,"dimensions":null,"purposes":[],"wikipedia_slug":null,"has_3d_model":false,"image_url":null,"decayed_at":null,"tle_current":{"epoch":"2026-05-25T04:29:31.121664Z","epoch_age_seconds":55539,"freshness":"FRESH","line1":"1 61899U 24205F   26145.18716576  .00008585  00000+0  46369-3 0  9991","line2":"2 61899  97.4102 217.1016 0008513 108.7694 251.4462 15.14921469 84792","mean_motion":15.14921469,"eccentricity":0.0008513,"inclination_deg":97.4102,"raan_deg":217.1016,"arg_perigee_deg":108.7694,"mean_anomaly_deg":251.4462,"bstar":0.00046369,"rev_number":8479,"period_min":95.05443215816,"perigee_km":515.34356368608,"apogee_km":527.09040377879,"semimajor_km":6899.3539837324,"source":"CELESTRAK","updated_at":"2026-05-25T13:38:02.603196Z"}}}